Location: Leiter
(44.7178°N, 106.2687°W)
Time: 09:44:49
(UTC+00:00)

ESTCUBE 1 - Pass Details

Date: 27 June 2022
Orbit: 645 x 657 km, 97.9° (Epoch: 15 August)

Event Time Altitude Azimuth Distance (km) Brightness Sun altitude
Exits shadow 05:05:00 30° 157° (SSE) 1,161 ? -16.4°
Maximum altitude 05:07:11 79° 76° (ENE) 664 ? -16.6°
Drops below altitude 10° 05:11:40 10° 350° (N) 2,057 ? -16.9°
Sets 05:13:54 0° 349° (NNW) 2,973 ? -17.1°
